EDT,Max TemperatureF,Mean TemperatureF,Min TemperatureF,Max Dew PointF,MeanDew PointF,Min DewpointF,Max Humidity, Mean Humidity, Min Humidity, Max Sea Level PressureIn, Mean Sea Level PressureIn, Min Sea Level PressureIn, Max VisibilityMiles, Mean VisibilityMiles, Min VisibilityMiles, Max Wind SpeedMPH, Mean Wind SpeedMPH, Max Gust SpeedMPH,PrecipitationIn, CloudCover, Events, WindDirDegrees
2011-9-1,75,67,59,59,57,54,100,73,47,30.23,30.20,30.15,10,10,7,14,5,17,0.00,2,Rain,59
2011-9-2,68,62,57,59,58,55,100,81,64,30.16,30.13,30.09,10,10,9,14,8,21,0.00,3,,35
2011-9-3,75,62,50,63,58,48,100,82,61,30.06,29.99,29.91,10,9,1,22,6,29,0.00,2,,232
2011-9-4,77,72,66,66,62,54,88,74,50,29.96,29.94,29.90,10,10,10,18,11,24,0.00,6,,221
2011-9-5,82,74,66,72,68,63,94,81,62,29.91,29.88,29.85,10,10,10,24,15,33,0.10,4,Rain,218
2011-9-6,73,66,59,72,63,57,100,96,88,30.12,29.95,29.83,10,6,1,20,13,28,1.72,8,Rain,12
2011-9-7,66,62,59,66,61,57,100,97,94,30.21,30.18,30.13,10,4,1,13,9,16,0.00,8,Rain,79
2011-9-8,73,66,59,68,61,59,100,97,83,30.16,30.07,30.00,10,5,0,22,10,29,1.50,7,Rain-Thunderstorm,38
2011-9-9,75,66,57,61,59,55,100,85,57,29.92,29.80,29.75,10,6,0,15,11,25,0.00,5,Fog,13
2011-9-10,69,63,57,63,57,54,100,78,60,29.99,29.90,29.84,10,10,10,15,7,21,0.00,0,,12
2011-9-11,68,59,50,54,49,46,94,71,52,30.18,30.13,30.08,10,10,10,14,7,17,0.00,0,,102
2011-9-12,77,67,57,66,62,55,100,85,61,30.05,30.01,29.95,10,10,8,14,7,17,0.00,5,,236
2011-9-13,80,70,60,68,64,61,100,81,54,29.99,29.94,29.90,10,7,0,21,8,25,0.00,2,Fog,223
2011-9-14,80,73,66,68,66,64,100,81,61,29.96,29.94,29.92,10,9,5,22,14,25,0.00,0,,230
2011-9-15,80,73,66,68,67,64,100,86,58,30.00,29.90,29.80,10,8,4,17,9,22,0.00,3,Thunderstorm,217
2011-9-16,64,55,46,46,39,37,77,59,39,30.23,30.13,29.94,10,10,10,15,11,23,0.00,1,,319
2011-9-17,62,54,46,46,42,39,82,65,48,30.47,30.42,30.34,10,10,10,14,6,17,0.00,1,,20
2011-9-18,62,56,51,48,47,46,82,69,55,30.47,30.44,30.39,10,10,10,18,9,26,0.00,5,,63
2011-9-19,64,58,51,52,50,48,94,75,59,30.33,30.28,30.20,10,10,10,14,8,21,0.00,3,,32
2011-9-20,66,55,44,59,53,43,100,85,73,30.18,30.14,30.10,10,10,5,17,5,26,0.00,4,,213
2011-9-21,75,67,59,63,61,59,100,82,57,30.27,30.23,30.18,10,8,1,14,3,16,0.00,5,Rain,222
2011-9-22,71,68,66,70,67,64,100,96,88,30.23,30.16,30.11,10,8,1,15,8,16,0.02,8,Rain,154
2011-9-23,71,70,68,70,68,68,100,96,88,30.18,30.12,30.05,10,7,1,13,6,,0.02,8,Rain,146
2011-9-24,75,72,68,72,69,66,100,93,78,30.08,30.04,30.00,10,8,1,16,11,22,0.12,6,Rain,217
2011-9-25,78,72,66,70,67,64,100,90,74,30.10,30.07,30.04,10,8,2,10,4,,0.00,3,Rain,315
2011-9-26,80,72,64,72,66,63,100,87,58,30.03,30.00,29.96,10,7,0,9,3,,0.01,3,Fog-Rain,336
2011-9-27,77,70,62,70,65,57,100,88,53,30.01,29.99,29.96,10,5,0,10,3,,0.01,6,Fog-Rain,181
2011-9-28,71,64,57,63,60,55,100,84,73,30.11,30.07,30.03,10,10,8,18,9,24,0.00,4,,100
2011-9-29,75,70,64,70,66,63,100,93,78,29.96,29.81,29.66,10,7,0,18,13,25,0.10,8,Fog-Rain,160
2011-9-30,75,66,57,63,58,54,100,74,53,29.78,29.74,29.69,10,10,8,17,11,24,0.00,0,,220